• In Austria
  • List of Countries
  • For 7 days
  • Water Temperature
  • Satellite Maps
  • Weather Map
  • News
  • Weather Widgets
  • user-avatar
    Login

    Hourly Weather Tirebolu

    Today, 19 November, Sunday

    Time Temperature Precipitation Wind Pressure Humidity
    00:00 +18°C° 0 mm 3 mps 755 mmHg 48%
    01:00 +18°C° 0 mm 3 mps 755 mmHg 48%
    02:00 +18°C° 0 mm 3 mps 755 mmHg 48%
    03:00 +18°C° 0 mm 4 mps 754 mmHg 44%
    04:00 +18°C° 0 mm 4 mps 754 mmHg 45%
    05:00 +18°C° 0 mm 3 mps 754 mmHg 46%
    06:00 +18°C° 0 mm 3 mps 754 mmHg 48%
    07:00 +18°C° 0 mm 3 mps 754 mmHg 47%
    08:00 +18°C° 0 mm 3 mps 754 mmHg 46%
    09:00 +19°C° 0 mm 3 mps 754 mmHg 46%
    10:00 +20°C° 0 mm 3 mps 754 mmHg 45%
    11:00 +20°C° 0 mm 3 mps 754 mmHg 45%
    12:00 +21°C° 0 mm 3 mps 754 mmHg 45%
    13:00 +20°C° 0.1 mm 3 mps 753 mmHg 49%
    14:00 +20°C° 0.1 mm 3 mps 753 mmHg 52%
    15:00 +19°C° 0.1 mm 4 mps 753 mmHg 56%
    16:00 +19°C° 0 mm 4 mps 753 mmHg 58%
    17:00 +18°C° 0 mm 4 mps 753 mmHg 60%
    18:00 +17°C° 0 mm 4 mps 753 mmHg 62%
    19:00 +17°C° 0 mm 4 mps 753 mmHg 62%
    20:00 +17°C° 0 mm 4 mps 753 mmHg 63%
    21:00 +17°C° 0 mm 4 mps 753 mmHg 63%
    22:00 +17°C° 0 mm 4 mps 753 mmHg 63%
    23:00 +17°C° 0 mm 4 mps 753 mmHg 63%

    Tomorrow, 20 November, Monday

    Time Temperature Precipitation Wind Pressure Humidity
    00:00 +15°C° 0 mm 4 mps 754 mmHg 64%
    01:00 +15°C° 0 mm 4 mps 754 mmHg 64%
    02:00 +15°C° 0 mm 4 mps 754 mmHg 64%
    03:00 +15°C° 0 mm 4 mps 754 mmHg 65%
    04:00 +15°C° 0 mm 4 mps 754 mmHg 65%
    05:00 +15°C° 0 mm 4 mps 753 mmHg 65%
    06:00 +15°C° 0 mm 5 mps 753 mmHg 65%
    07:00 +15°C° 0 mm 4 mps 753 mmHg 64%
    08:00 +17°C° 0 mm 4 mps 753 mmHg 63%
    09:00 +17°C° 0 mm 4 mps 753 mmHg 62%
    10:00 +18°C° 0 mm 4 mps 753 mmHg 59%
    11:00 +19°C° 0 mm 3 mps 752 mmHg 57%
    12:00 +20°C° 0 mm 3 mps 752 mmHg 54%
    13:00 +20°C° 0 mm 3 mps 751 mmHg 54%
    14:00 +20°C° 0 mm 3 mps 751 mmHg 54%
    15:00 +20°C° 0 mm 3 mps 750 mmHg 54%
    16:00 +19°C° 0 mm 3 mps 750 mmHg 57%
    17:00 +18°C° 0 mm 4 mps 750 mmHg 60%
    18:00 +17°C° 0 mm 4 mps 750 mmHg 63%
    19:00 +17°C° 0 mm 4 mps 750 mmHg 64%
    20:00 +17°C° 0 mm 4 mps 749 mmHg 64%
    21:00 +17°C° 0 mm 3 mps 749 mmHg 64%
    22:00 +17°C° 0 mm 3 mps 749 mmHg 65%
    23:00 +17°C° 0 mm 3 mps 749 mmHg 66%

    Day after tomorrow, 21 November, Tuesday

    Time Temperature Precipitation Wind Pressure Humidity
    00:00 +17°C° 0 mm 3 mps 748 mmHg 67%
    01:00 +16°C° 0 mm 3 mps 748 mmHg 68%
    02:00 +16°C° 0 mm 3 mps 748 mmHg 68%
    03:00 +16°C° 0 mm 3 mps 748 mmHg 69%
    04:00 +16°C° 0 mm 3 mps 747 mmHg 69%
    05:00 +16°C° 0 mm 3 mps 747 mmHg 70%
    06:00 +16°C° 0 mm 3 mps 746 mmHg 70%
    07:00 +16°C° 0 mm 3 mps 746 mmHg 70%
    08:00 +16°C° 0 mm 3 mps 746 mmHg 69%
    09:00 +17°C° 0 mm 3 mps 746 mmHg 68%
    10:00 +17°C° 0.2 mm 4 mps 746 mmHg 71%
    11:00 +15°C° 0.2 mm 5 mps 746 mmHg 74%
    12:00 +15°C° 0.2 mm 6 mps 746 mmHg 78%
    13:00 +14°C° 1.5 mm 6 mps 745 mmHg 82%
    14:00 +13°C° 1.5 mm 6 mps 745 mmHg 87%
    15:00 +13°C° 1.5 mm 6 mps 745 mmHg 91%
    16:00 +11°C° 3.9 mm 7 mps 746 mmHg 92%
    17:00 +10°C° 3.9 mm 8 mps 746 mmHg 93%
    18:00 +10°C° 3.9 mm 9 mps 747 mmHg 94%
    19:00 +8°C° 3.4 mm 9 mps 748 mmHg 93%
    20:00 +8°C° 3.4 mm 9 mps 749 mmHg 92%
    21:00 +8°C° 3.4 mm 9 mps 750 mmHg 90%
    22:00 +7°C° 1 mm 8 mps 751 mmHg 90%
    23:00 +7°C° 1 mm 8 mps 752 mmHg 90%

    22 November, Wednesday

    Time Temperature Precipitation Wind Pressure Humidity
    00:00 +8°C° 1 mm 7 mps 753 mmHg 89%
    01:00 +6°C° 0.5 mm 7 mps 754 mmHg 89%
    02:00 +6°C° 0.5 mm 7 mps 754 mmHg 88%
    03:00 +7°C° 0.5 mm 6 mps 755 mmHg 88%
    04:00 +7°C° 0.7 mm 6 mps 755 mmHg 88%
    05:00 +5°C° 0.7 mm 6 mps 756 mmHg 89%
    06:00 +5°C° 0.7 mm 6 mps 756 mmHg 89%
    07:00 +5°C° 0.8 mm 6 mps 756 mmHg 88%
    08:00 +6°C° 0.8 mm 5 mps 757 mmHg 88%
    09:00 +6°C° 0.8 mm 5 mps 757 mmHg 88%
    10:00 +6°C° 0.6 mm 4 mps 757 mmHg 87%
    11:00 +7°C° 0.6 mm 4 mps 757 mmHg 85%
    12:00 +7°C° 0.6 mm 4 mps 757 mmHg 84%
    13:00 +8°C° 0.3 mm 3 mps 757 mmHg 83%
    14:00 +8°C° 0.3 mm 3 mps 757 mmHg 82%
    15:00 +8°C° 0.3 mm 2 mps 757 mmHg 81%
    16:00 +8°C° 0.1 mm 2 mps 757 mmHg 81%
    17:00 +7°C° 0.1 mm 2 mps 757 mmHg 81%
    18:00 +7°C° 0.1 mm 2 mps 757 mmHg 81%
    19:00 +6°C° 0 mm 2 mps 757 mmHg 80%
    20:00 +6°C° 0 mm 2 mps 758 mmHg 78%
    21:00 +5°C° 0 mm 2 mps 758 mmHg 77%
    22:00 +5°C° 0.1 mm 3 mps 757 mmHg 76%
    23:00 +5°C° 0.1 mm 3 mps 757 mmHg 75%

    23 November, Thursday

    Time Temperature Precipitation Wind Pressure Humidity
    00:00 +5°C° 0.1 mm 3 mps 757 mmHg 74%
    01:00 +6°C° 0.4 mm 4 mps 757 mmHg 75%
    02:00 +6°C° 0.4 mm 4 mps 757 mmHg 76%
    03:00 +6°C° 0.4 mm 4 mps 756 mmHg 77%
    04:00 +6°C° 0.7 mm 5 mps 756 mmHg 77%
    05:00 +5°C° 0.7 mm 6 mps 756 mmHg 78%
    06:00 +5°C° 0.7 mm 7 mps 756 mmHg 78%
    07:00 +5°C° 0.7 mm 7 mps 757 mmHg 79%
    08:00 +5°C° 0.7 mm 8 mps 757 mmHg 81%
    09:00 +6°C° 0.7 mm 8 mps 757 mmHg 82%
    10:00 +6°C° 0.7 mm 8 mps 758 mmHg 81%
    11:00 +6°C° 0.7 mm 9 mps 758 mmHg 79%
    12:00 +7°C° 0.7 mm 9 mps 758 mmHg 78%
    13:00 +7°C° 0.5 mm 9 mps 758 mmHg 78%
    14:00 +7°C° 0.5 mm 9 mps 758 mmHg 79%
    15:00 +7°C° 0.5 mm 9 mps 758 mmHg 79%
    16:00 +6°C° 0.6 mm 8 mps 759 mmHg 80%
    17:00 +6°C° 0.6 mm 8 mps 759 mmHg 82%
    18:00 +5°C° 0.6 mm 7 mps 760 mmHg 83%
    19:00 +5°C° 0.7 mm 7 mps 760 mmHg 83%
    20:00 +5°C° 0.7 mm 7 mps 761 mmHg 83%
    21:00 +5°C° 0.7 mm 6 mps 761 mmHg 83%
    22:00 +5°C° 0.4 mm 6 mps 762 mmHg 82%
    23:00 +4°C° 0.4 mm 6 mps 762 mmHg 82%

    24 November, Friday

    Time Temperature Precipitation Wind Pressure Humidity
    00:00 +5°C° 0.4 mm 5 mps 762 mmHg 82%
    01:00 +5°C° 0.1 mm 5 mps 762 mmHg 82%
    02:00 +5°C° 0.1 mm 5 mps 763 mmHg 81%
    03:00 +3°C° 0.1 mm 5 mps 763 mmHg 81%
    04:00 +3°C° 0.1 mm 5 mps 763 mmHg 81%
    05:00 +3°C° 0.1 mm 5 mps 763 mmHg 80%
    06:00 +2°C° 0.1 mm 5 mps 763 mmHg 80%
    07:00 +4°C° 0.2 mm 4 mps 764 mmHg 79%
    08:00 +4°C° 0.2 mm 4 mps 764 mmHg 78%
    09:00 +4°C° 0.2 mm 4 mps 764 mmHg 77%
    10:00 +5°C° 0.3 mm 4 mps 764 mmHg 76%
    11:00 +6°C° 0.3 mm 4 mps 764 mmHg 74%
    12:00 +7°C° 0.3 mm 4 mps 764 mmHg 72%
    13:00 +7°C° 0.3 mm 4 mps 763 mmHg 74%
    14:00 +7°C° 0.3 mm 4 mps 763 mmHg 75%
    15:00 +6°C° 0.3 mm 4 mps 763 mmHg 77%
    16:00 +6°C° 0.2 mm 4 mps 764 mmHg 79%
    17:00 +5°C° 0.2 mm 3 mps 764 mmHg 80%
    18:00 +4°C° 0.2 mm 3 mps 765 mmHg 82%
    19:00 +4°C° 0.1 mm 3 mps 765 mmHg 81%
    20:00 +3°C° 0.1 mm 3 mps 765 mmHg 81%
    21:00 +3°C° 0.1 mm 3 mps 766 mmHg 80%
    22:00 +2°C° 0.1 mm 3 mps 766 mmHg 80%
    23:00 +2°C° 0.1 mm 3 mps 766 mmHg 79%
    Show more